Colby, KS

3:00 AM CST on December 05, 2016 (GMT -0600)
Shaltz

Weather History for KCBK - May, 2012

Change the Weather History Date:

Wednesday, May 16, 2012

  Actual Average (KGLD) Record (KGLD)
Temperature  
Mean Temperature 66 °F 59 °F  
Max Temperature 89 °F 73 °F 94 °F (1996)
Min Temperature 44 °F 46 °F 27 °F (1945)
Degree Days  
Heating Degree Days 0 7  
Month to date heating degree days 141  
Since 1 July heating degree days 5796  
Cooling Degree Days 2 1  
Month to date cooling degree days 14  
Year to date cooling degree days 18  
Growing Degree Days 16 (Base 50)    
Moisture  
Dew Point 52 °F    
Average Humidity 59    
Maximum Humidity 93    
Minimum Humidity 36    
Precipitation  
Precipitation 0.00 in 0.10 in 1.64 in (1947)
Month to date precipitation 1.33  
Year to date precipitation 4.86  
Snow  
Snow - 0.00 in - ()
Month to date snowfall 0.5  
Since 1 July snowfall 35.5  
Snow Depth -    
Sea Level Pressure  
Sea Level Pressure 30.06 in    
Wind  
Wind Speed 11 mph ()    
Max Wind Speed 24 mph    
Max Gust Speed 29 mph    
Visibility 10.0 miles    
Events      
T = Trace of Precipitation, MM = Missing Value Source: Averaged Metar Reports

Daily Weather History Graph

Daily Weather History Graph

Search for Another Location

Airport or City:

Trip Planner

Search our weather history database for the weather conditions in past years. The results will help you decide how hot, cold, wet, or windy it might be!

Date:

Astronomy

May. 16, 2012 Rise Set
Actual Time 6:29 AM CDT 8:52 PM CDT
Civil Twilight 5:58 AM CDT 9:23 PM CDT
Nautical Twilight 5:20 AM CDT 10:00 PM CDT
Astronomical Twilight 4:39 AM CDT 10:42 PM CDT
Moon 3:58 AM CDT (5/16) 5:10 PM CDT (5/16)
Length of Visible Light 15h 24m
Length of Day
14h 23m
Waning Crescent, 16% of the Moon is Illuminated
May 16
Waning Crescent
May 20
New
May 28
First Quarter
Jun 4
Full
Jun 11
Last Quarter

Hourly Weather History & Observations

Time (CDT) Temp. Windchill Dew Point Humidity Pressure Visibility Wind Dir Wind Speed Gust Speed Precip Events Conditions
12:15 AM 53.6 °F - 50.0 °F 88% 30.15 in 10.0 mi ENE 9.2 mph - N/A   Clear
12:55 AM 51.8 °F - 48.2 °F 88% 30.16 in 10.0 mi East 5.8 mph - N/A   Clear
1:15 AM 51.8 °F - 46.4 °F 82% 30.16 in 10.0 mi East 6.9 mph - N/A   Clear
1:35 AM 51.8 °F - 46.4 °F 82% 30.17 in 10.0 mi East 6.9 mph - N/A   Clear
1:55 AM 50.0 °F - 46.4 °F 87% 30.17 in 10.0 mi East 6.9 mph - N/A   Clear
2:15 AM 50.0 °F - 46.4 °F 87% 30.16 in 10.0 mi East 6.9 mph - N/A   Clear
2:35 AM 50.0 °F - 44.6 °F 82% 30.16 in 10.0 mi East 9.2 mph - N/A   Clear
2:55 AM 48.2 °F - 44.6 °F 87% 30.15 in 10.0 mi East 9.2 mph - N/A   Clear
3:15 AM 48.2 °F - 44.6 °F 87% 30.15 in 10.0 mi East 9.2 mph - N/A   Clear
3:35 AM 46.4 °F 42.4 °F 44.6 °F 93% 30.15 in 10.0 mi East 8.1 mph - N/A   Clear
3:55 AM 46.4 °F 42.4 °F 44.6 °F 93% 30.15 in 10.0 mi East 8.1 mph - N/A   Clear
4:15 AM 46.4 °F 42.4 °F 44.6 °F 93% 30.15 in 10.0 mi East 8.1 mph - N/A   Clear
4:35 AM 46.4 °F 42.4 °F 44.6 °F 93% 30.14 in 10.0 mi East 8.1 mph - N/A   Clear
4:55 AM 46.4 °F 42.4 °F 42.8 °F 87% 30.14 in 10.0 mi ESE 8.1 mph - N/A   Clear
5:15 AM 44.6 °F 40.2 °F 42.8 °F 93% 30.14 in 10.0 mi ESE 8.1 mph - N/A   Clear
5:35 AM 44.6 °F 39.2 °F 42.8 °F 93% 30.14 in 10.0 mi East 10.4 mph - N/A   Clear
5:55 AM 46.4 °F 41.9 °F 42.8 °F 87% 30.14 in 10.0 mi East 9.2 mph - N/A   Clear
6:35 AM 44.6 °F 39.7 °F 42.8 °F 93% 30.14 in 10.0 mi ESE 9.2 mph - N/A   Clear
6:55 AM 48.2 °F - 44.6 °F 87% 30.14 in 10.0 mi ESE 11.5 mph - N/A   Clear
7:15 AM 48.2 °F - 44.6 °F 87% 30.14 in 10.0 mi ESE 10.4 mph - N/A   Clear
7:35 AM 50.0 °F - 44.6 °F 82% 30.14 in 10.0 mi ESE 8.1 mph - N/A   Clear
7:55 AM 51.8 °F - 46.4 °F 82% 30.14 in 10.0 mi ESE 11.5 mph - N/A   Clear
8:15 AM 55.4 °F - 46.4 °F 72% 30.14 in 10.0 mi ESE 17.3 mph 20.7 mph N/A   Clear
8:35 AM 59.0 °F - 46.4 °F 63% 30.14 in 10.0 mi ESE 17.3 mph - N/A   Clear
8:55 AM 60.8 °F - 46.4 °F 59% 30.14 in 10.0 mi ESE 17.3 mph 23.0 mph N/A   Clear
9:15 AM 62.6 °F - 48.2 °F 59% 30.14 in 10.0 mi SE 21.9 mph - N/A   Clear
9:35 AM 64.4 °F - 50.0 °F 59% 30.14 in 10.0 mi SE 17.3 mph 23.0 mph N/A   Clear
9:55 AM 66.2 °F - 50.0 °F 56% 30.14 in 10.0 mi SE 15.0 mph - N/A   Clear
10:15 AM 69.8 °F - 51.8 °F 53% 30.13 in 10.0 mi SE 18.4 mph 24.2 mph N/A   Clear
10:35 AM 71.6 °F - 51.8 °F 50% 30.13 in 10.0 mi SE 18.4 mph 23.0 mph N/A   Clear
10:55 AM 71.6 °F - 53.6 °F 53% 30.12 in 10.0 mi SSE 17.3 mph 21.9 mph N/A   Clear
11:15 AM 73.4 °F - 53.6 °F 50% 30.12 in 10.0 mi SE 13.8 mph - N/A   Clear
11:35 AM 75.2 °F - 55.4 °F 50% 30.11 in 10.0 mi SE 15.0 mph 19.6 mph N/A   Clear
11:55 AM 77.0 °F - 55.4 °F 47% 30.11 in 10.0 mi SSE 12.7 mph - N/A   Clear
12:15 PM 78.8 °F - 57.2 °F 47% 30.10 in 10.0 mi SSE 15.0 mph 20.7 mph N/A   Clear
12:35 PM 80.6 °F - 59.0 °F 48% 30.09 in 10.0 mi SSE 11.5 mph 19.6 mph N/A   Clear
12:55 PM 82.4 °F - 59.0 °F 45% 30.08 in 10.0 mi SSE 13.8 mph - N/A   Clear
1:15 PM 86.0 °F - 59.0 °F 40% 30.07 in 10.0 mi South 13.8 mph 20.7 mph N/A   Clear
1:35 PM 86.0 °F - 59.0 °F 40% 30.06 in 10.0 mi South 13.8 mph 20.7 mph N/A   Clear
1:55 PM 86.0 °F - 60.8 °F 43% 30.05 in 10.0 mi SSE 12.7 mph 21.9 mph N/A   Clear
2:15 PM 86.0 °F - 59.0 °F 40% 30.03 in 10.0 mi SSW 11.5 mph 21.9 mph N/A   Clear
2:35 PM 87.8 °F - 59.0 °F 38% 30.03 in 10.0 mi South 13.8 mph 23.0 mph N/A   Clear
2:55 PM 87.8 °F - 59.0 °F 38% 30.02 in 10.0 mi South 13.8 mph 27.6 mph N/A   Clear
3:15 PM 87.8 °F - 59.0 °F 38% 30.01 in 10.0 mi SSE 16.1 mph 23.0 mph N/A   Clear
3:35 PM 87.8 °F - 59.0 °F 38% 30.00 in 10.0 mi South 16.1 mph 27.6 mph N/A   Clear
3:55 PM 87.8 °F - 59.0 °F 38% 29.99 in 10.0 mi South 15.0 mph 21.9 mph N/A   Clear
4:15 PM 89.6 °F - 60.8 °F 38% 29.98 in 10.0 mi SSE 12.7 mph 27.6 mph N/A   Clear
4:35 PM 89.6 °F - 60.8 °F 38% 29.97 in 10.0 mi SSE 19.6 mph 25.3 mph N/A   Clear
4:55 PM 89.6 °F - 60.8 °F 38% 29.96 in 10.0 mi SSE 18.4 mph 25.3 mph N/A   Clear
5:15 PM 89.6 °F - 60.8 °F 38% 29.95 in 10.0 mi SSE 18.4 mph 25.3 mph N/A   Clear
5:35 PM 89.6 °F - 60.8 °F 38% 29.94 in 10.0 mi SSE 18.4 mph 27.6 mph N/A   Clear
5:55 PM 89.6 °F - 59.0 °F 36% 29.93 in 10.0 mi South 11.5 mph - N/A   Clear
6:15 PM 87.8 °F - 59.0 °F 38% 29.93 in 10.0 mi SSE 20.7 mph - N/A   Clear
6:35 PM 87.8 °F - 59.0 °F 38% 29.93 in 10.0 mi South 16.1 mph 24.2 mph N/A   Clear
6:55 PM 87.8 °F - 59.0 °F 38% 29.93 in 10.0 mi SSE 24.2 mph 28.8 mph N/A   Clear
7:15 PM 86.0 °F - 59.0 °F 40% 29.92 in 10.0 mi South 20.7 mph 27.6 mph N/A   Clear
7:35 PM 84.2 °F - 59.0 °F 42% 29.92 in 10.0 mi SSE 17.3 mph 24.2 mph N/A   Clear
7:55 PM 82.4 °F - 57.2 °F 42% 29.92 in 10.0 mi SSE 16.1 mph 20.7 mph N/A   Clear
8:15 PM 80.6 °F - 55.4 °F 42% 29.92 in 10.0 mi SSE 12.7 mph - N/A   Clear
8:35 PM 78.8 °F - 55.4 °F 44% 29.93 in 10.0 mi SSE 13.8 mph - N/A   Clear
8:55 PM 78.8 °F - 55.4 °F 44% 29.93 in 10.0 mi SSE 15.0 mph - N/A   Clear
9:15 PM 77.0 °F - 53.6 °F 44% 29.93 in 10.0 mi South 12.7 mph - N/A   Clear
9:35 PM 75.2 °F - 53.6 °F 47% 29.93 in 10.0 mi SSE 13.8 mph 19.6 mph N/A   Clear
9:55 PM 73.4 °F - 51.8 °F 47% 29.94 in 10.0 mi SSE 15.0 mph 20.7 mph N/A   Clear
10:15 PM 71.6 °F - 51.8 °F 50% 29.95 in 10.0 mi SSE 16.1 mph - N/A   Clear
10:35 PM 71.6 °F - 51.8 °F 50% 29.95 in 10.0 mi South 16.1 mph 21.9 mph N/A   Clear
10:55 PM 69.8 °F - 51.8 °F 53% 29.95 in 10.0 mi South 17.3 mph - N/A   Clear
11:15 PM 69.8 °F - 51.8 °F 53% 29.95 in 10.0 mi South 17.3 mph 24.2 mph N/A   Clear
11:35 PM 68.0 °F - 50.0 °F 52% 29.95 in 10.0 mi South 16.1 mph - N/A   Clear
11:55 PM 68.0 °F - 51.8 °F 56% 29.95 in 10.0 mi South 17.3 mph 20.7 mph N/A   Clear